This is the latest recevied weather packets stored in our database for station/object K1RFS. If no packets are shown the sender has not sent any weather packets the latest 10 day(s).
| Time | Temp. | Humidity | Pressure | Rain* | Wind** | Luminosity | Snow |
|---|---|---|---|---|---|---|---|
| 1788438390 | 15° C | 27% | 1000 hPa | 0 mm | - | 0 W/m² | - |
| 1788438090 | 15° C | 27% | 1000 hPa | 0 mm | - | 0 W/m² | - |
| 1788437789 | 14.44° C | 27% | 1000 hPa | 0 mm | - | 0 W/m² | - |
| 1788437485 | 15° C | 29% | 1000 hPa | 0 mm | - | 0 W/m² | - |
| 1788437184 | 15° C | 28% | 999.9 hPa | 0 mm | - | 0 W/m² | - |
| 1788436879 | 15.56° C | 26% | 1000.1 hPa | 0 mm | - | 0 W/m² | - |
| 1788436577 | 16.11° C | 24% | 999.8 hPa | 0 mm | - | 0 W/m² | - |
| 1788436272 | 16.11° C | 22% | 1000 hPa | 0 mm | - | 0 W/m² | - |
| 1788435967 | 16.11° C | 23% | 1000.1 hPa | 0 mm | - | 0 W/m² | - |
| 1788435663 | 17.22° C | 22% | 999.9 hPa | 0 mm | - | 0 W/m² | - |
| 1788435358 | 16.67° C | 21% | 999.8 hPa | 0 mm | - | 0 W/m² | - |
| 1788435055 | 16.11° C | 23% | 999.9 hPa | 0 mm | - | 0 W/m² | - |
| 1788434751 | 16.67° C | 23% | 999.8 hPa | 0 mm | - | 0 W/m² | - |
| 1788434450 | 16.67° C | 22% | 999.9 hPa | 0 mm | - | 0 W/m² | - |
| 1788434149 | 16.67° C | 21% | 1000.1 hPa | 0 mm | - | 0 W/m² | - |
| 1788433845 | 17.22° C | 22% | 999.8 hPa | 0 mm | - | 0 W/m² | - |
| 1788433541 | 16.67° C | 21% | 999.8 hPa | 0 mm | - | 0 W/m² | - |
| 1788433254 | 16.67° C | 22% | 1000 hPa | 0 mm | - | 0 W/m² | - |
| 1788432931 | 17.22° C | 22% | 1000 hPa | 0 mm | - | 0 W/m² | - |
| 1788432626 | 17.22° C | 21% | 1000 hPa | 0 mm | - | 0 W/m² | - |
| 1788432325 | 17.22° C | 23% | 1000 hPa | 0 mm | - | 0 W/m² | - |
| 1788432022 | 17.22° C | 23% | 999.9 hPa | 0 mm | - | 0 W/m² | - |
| 1788431717 | 16.67° C | 22% | 999.8 hPa | 0 mm | - | 0 W/m² | - |
| 1788431414 | 16.67° C | 24% | 1000 hPa | 0 mm | - | 0 W/m² | - |
| 1788431108 | 16.11° C | 25% | 999.9 hPa | 0 mm | - | 0 W/m² | - |
* Rain latest hour (hover to see other rain measurements)
** Current wind speed in m/s (hover to see current wind gust speed)